| time (UTC) | temp C | wind direction | speed KPH | gust KPH | rain 1hr cm | rain 24hr cm | rain mn cm | humidity % | barometer mb |
| 20260503222532 | 25 | 6 | 4.8 | 9.7 | 0.00 | 0.00 | 0.00 | 41 | 1011.1 |
| 20260503221530 | 24 | 7 | 4.8 | 11.3 | 0.00 | 0.00 | 0.00 | 43 | 1011.2 |
| 20260503220528 | 24 | 7 | 4.8 | 9.7 | 0.00 | 0.00 | 0.00 | 43 | 1011.5 |
| 20260503215526 | 24 | 335 | 3.2 | 11.3 | 0.00 | 0.00 | 0.00 | 43 | 1011.5 |
| 20260503214545 | 24 | 10 | 4.8 | 11.3 | 0.00 | 0.00 | 0.00 | 43 | 1011.7 |
| 20260503213523 | 23 | 355 | 6.4 | 11.3 | 0.00 | 0.00 | 0.00 | 43 | 1011.6 |
| 20260503212541 | 23 | 349 | 6.4 | 11.3 | 0.00 | 0.00 | 0.00 | 45 | 1011.8 |
| 20260503211519 | 23 | 354 | 6.4 | 14.5 | 0.00 | 0.00 | 0.00 | 44 | 1011.9 |
| 20260503210518 | 23 | 5 | 6.4 | 14.5 | 0.00 | 0.00 | 0.00 | 47 | 1012.1 |
| 20260503205516 | 23 | 359 | 4.8 | 12.9 | 0.00 | 0.00 | 0.00 | 46 | 1012.1 |
| 20260503204614 | 23 | 357 | 4.8 | 14.5 | 0.00 | 0.00 | 0.00 | 48 | 1012.2 |
| 20260503203612 | 22 | 4 | 6.4 | 11.3 | 0.00 | 0.00 | 0.00 | 48 | 1012.5 |
| 20260503202611 | 22 | 320 | 4.8 | 9.7 | 0.00 | 0.00 | 0.00 | 48 | 1012.6 |
| 20260503201609 | 22 | 357 | 6.4 | 12.9 | 0.00 | 0.00 | 0.00 | 48 | 1012.6 |
| 20260503200608 | 22 | 15 | 6.4 | 14.5 | 0.00 | 0.00 | 0.00 | 51 | 1012.8 |
| 20260503195606 | 22 | 332 | 4.8 | 9.7 | 0.00 | 0.00 | 0.00 | 51 | 1012.9 |
| 20260503194604 | 22 | 11 | 6.4 | 11.3 | 0.00 | 0.00 | 0.00 | 53 | 1012.9 |
| 20260503193622 | 21 | 342 | 1.6 | 4.8 | 0.00 | 0.00 | 0.00 | 54 | 1013.1 |
| 20260503192601 | 21 | 3 | 4.8 | 9.7 | 0.00 | 0.00 | 0.00 | 54 | 1013.2 |
| 20260503191619 | 21 | 12 | 4.8 | 9.7 | 0.00 | 0.00 | 0.00 | 55 | 1013.3 |
| 20260503190557 | 21 | 349 | 3.2 | 9.7 | 0.00 | 0.00 | 0.00 | 56 | 1013.4 |
| 20260503185555 | 21 | 342 | 4.8 | 9.7 | 0.00 | 0.00 | 0.00 | 54 | 1013.4 |
| 20260503184554 | 21 | 356 | 8.0 | 9.7 | 0.00 | 0.00 | 0.00 | 55 | 1013.5 |
| 20260503183552 | 21 | 339 | 4.8 | 11.3 | 0.00 | 0.00 | 0.00 | 56 | 1013.6 |
| 20260503182550 | 21 | 10 | 4.8 | 12.9 | 0.00 | 0.00 | 0.00 | 56 | 1013.7 |
| 20260503181549 | 21 | 357 | 3.2 | 6.4 | 0.00 | 0.00 | 0.00 | 57 | 1013.8 |
| 20260503180547 | 20 | 29 | 3.2 | 6.4 | 0.00 | 0.00 | 0.00 | 58 | 1013.8 |
| 20260503175605 | 20 | 347 | 4.8 | 11.3 | 0.00 | 0.00 | 0.00 | 58 | 1013.9 |
| 20260503174543 | 20 | 13 | 4.8 | 9.7 | 0.00 | 0.00 | 0.00 | 58 | 1014.1 |
| 20260503173541 | 20 | 7 | 6.4 | 12.9 | 0.00 | 0.00 | 0.00 | 59 | 1013.9 |
| 20260503172540 | 19 | 355 | 3.2 | 6.4 | 0.00 | 0.00 | 0.00 | 59 | 1014.0 |
| 20260503171538 | 18 | 3 | 4.8 | 9.7 | 0.00 | 0.00 | 0.00 | 60 | 1014.1 |
| 20260503170536 | 18 | 359 | 6.4 | 11.3 | 0.00 | 0.00 | 0.00 | 59 | 1014.1 |
| 20260503150616 | 25 | 18 | 1.6 | 3.2 | 0.00 | 0.00 | 0.00 | 51 | 1014.2 |
| 20260503130554 | 11 | 0.0 | 0.0 | 0.00 | 0.00 | 0.00 | 83 | 1014.1 | |
| 20260503110554 | 12 | 0.0 | 0.0 | 0.00 | 0.00 | 0.00 | 76 | 1014.1 | |
| 20260503081604 | 16 | 0.0 | 0.0 | 0.00 | 0.00 | 0.00 | 56 | 1014.6 | |
| 20260503080602 | 16 | 119 | 1.6 | 1.6 | 0.00 | 0.00 | 0.00 | 55 | 1014.4 |
| 20260503072555 | 18 | 107 | 0.0 | 1.6 | 0.00 | 0.00 | 0.00 | 49 | 1014.3 |
| 20260503071554 | 18 | 44 | 3.2 | 9.7 | 0.00 | 0.00 | 0.00 | 48 | 1014.4 |
| 20260503070555 | 18 | 78 | 1.6 | 3.2 | 0.00 | 0.00 | 0.00 | 48 | 1014.5 |
| 20260503054538 | 18 | 18 | 0.0 | 3.2 | 0.00 | 0.00 | 0.00 | 51 | 1014.2 |
| 20260503053557 | 18 | 76 | 0.0 | 4.8 | 0.00 | 0.00 | 0.00 | 52 | 1014.2 |
| 20260503052534 | 18 | 22 | 1.6 | 4.8 | 0.00 | 0.00 | 0.00 | 52 | 1014.2 |
| 20260503051533 | 18 | 61 | 0.0 | 3.2 | 0.00 | 0.00 | 0.00 | 53 | 1014.2 |
| 20260503050531 | 18 | 0.0 | 0.0 | 0.00 | 0.00 | 0.00 | 53 | 1014.2 | |
| 20260503045529 | 18 | 25 | 1.6 | 4.8 | 0.00 | 0.00 | 0.00 | 54 | 1014.1 |
| 20260503044608 | 18 | 11 | 1.6 | 4.8 | 0.00 | 0.00 | 0.00 | 54 | 1014.1 |
| 20260503043526 | 19 | 15 | 1.6 | 4.8 | 0.00 | 0.00 | 0.00 | 54 | 1014.1 |
| 20260503042524 | 19 | 7 | 0.0 | 1.6 | 0.00 | 0.00 | 0.00 | 54 | 1013.8 |
| 20260503041543 | 19 | 13 | 1.6 | 4.8 | 0.00 | 0.00 | 0.00 | 54 | 1013.8 |
| 20260503040541 | 18 | 18 | 1.6 | 4.8 | 0.00 | 0.00 | 0.00 | 56 | 1013.6 |
| 20260503035519 | 18 | 352 | 1.6 | 3.2 | 0.00 | 0.00 | 0.00 | 58 | 1013.4 |
| 20260503034517 | 18 | 349 | 0.0 | 1.6 | 0.00 | 0.00 | 0.00 | 57 | 1013.4 |
| 20260503033516 | 18 | 339 | 1.6 | 4.8 | 0.00 | 0.00 | 0.00 | 57 | 1013.2 |
| 20260503032614 | 18 | 334 | 1.6 | 3.2 | 0.00 | 0.00 | 0.00 | 56 | 1013.0 |
| 20260503031613 | 19 | 352 | 3.2 | 6.4 | 0.00 | 0.00 | 0.00 | 55 | 1013.0 |
| 20260503030630 | 19 | 355 | 1.6 | 4.8 | 0.00 | 0.00 | 0.00 | 54 | 1013.0 |
| 20260503025609 | 19 | 316 | 1.6 | 6.4 | 0.00 | 0.00 | 0.00 | 53 | 1012.8 |
| 20260503024627 | 20 | 348 | 4.8 | 12.9 | 0.00 | 0.00 | 0.00 | 52 | 1012.9 |
| 20260503023606 | 20 | 343 | 4.8 | 12.9 | 0.00 | 0.00 | 0.00 | 52 | 1012.8 |
| 20260503022624 | 20 | 343 | 4.8 | 11.3 | 0.00 | 0.00 | 0.00 | 51 | 1012.8 |
| 20260503021602 | 21 | 329 | 4.8 | 11.3 | 0.00 | 0.00 | 0.00 | 49 | 1012.7 |
| 20260503020600 | 21 | 334 | 6.4 | 14.5 | 0.00 | 0.00 | 0.00 | 48 | 1012.8 |
| 20260503015558 | 21 | 307 | 6.4 | 11.3 | 0.00 | 0.00 | 0.00 | 49 | 1012.7 |
| 20260503014556 | 21 | 346 | 6.4 | 11.3 | 0.00 | 0.00 | 0.00 | 50 | 1012.8 |
| 20260503013615 | 21 | 354 | 4.8 | 9.7 | 0.00 | 0.00 | 0.00 | 49 | 1012.8 |
| 20260503012553 | 21 | 2 | 8.0 | 14.5 | 0.00 | 0.00 | 0.00 | 49 | 1012.9 |
| 20260503011552 | 21 | 353 | 6.4 | 12.9 | 0.00 | 0.00 | 0.00 | 49 | 1013.0 |
| 20260503010550 | 21 | 355 | 4.8 | 9.7 | 0.00 | 0.00 | 0.00 | 49 | 1012.9 |
| 20260503005548 | 21 | 4 | 6.4 | 9.7 | 0.00 | 0.00 | 0.00 | 49 | 1013.0 |
| 20260503004546 | 21 | 1 | 6.4 | 11.3 | 0.00 | 0.00 | 0.00 | 49 | 1013.2 |
| 20260503003545 | 21 | 356 | 4.8 | 9.7 | 0.00 | 0.00 | 0.00 | 49 | 1013.3 |
| 20260503002543 | 21 | 346 | 4.8 | 12.9 | 0.00 | 0.00 | 0.00 | 49 | 1013.3 |
| 20260503001541 | 21 | 347 | 6.4 | 11.3 | 0.00 | 0.00 | 0.00 | 49 | 1013.3 |
| 20260503000540 | 21 | 346 | 8.0 | 16.1 | 0.00 | 0.00 | 0.00 | 49 | 1013.3 |
| 20260502235538 | 21 | 353 | 9.7 | 20.9 | 0.00 | 0.00 | 0.00 | 48 | 1013.3 |
| 20260502234617 | 21 | 345 | 9.7 | 20.9 | 0.00 | 0.00 | 0.00 | 47 | 1013.4 |
| 20260502233534 | 21 | 4 | 11.3 | 20.9 | 0.00 | 0.00 | 0.00 | 46 | 1013.7 |
| 20260502232536 | 21 | 13 | 9.7 | 16.1 | 0.00 | 0.00 | 0.00 | 48 | 1013.7 |
| 20260502231531 | 21 | 342 | 6.4 | 12.9 | 0.00 | 0.00 | 0.00 | 50 | 1014.0 |
| 20260502230550 | 21 | 5 | 8.0 | 14.5 | 0.00 | 0.00 | 0.00 | 51 | 1014.0 |
| 20260502225528 | 21 | 357 | 9.7 | 22.5 | 0.00 | 0.00 | 0.00 | 51 | 1014.2 |
| 20260502224526 | 21 | 351 | 6.4 | 14.5 | 0.00 | 0.00 | 0.00 | 54 | 1014.4 |
| 20260502223544 | 21 | 354 | 9.7 | 12.9 | 0.00 | 0.00 | 0.00 | 54 | 1014.5 |